Regional Weather Roundup
Issued by NWS

Home | Current Version | Previous Version | Graphics & Text | Print | Product List | Glossary On
Versions: 1 2 3 4 5 6 7 8 9 10 11 12 13 14 15 16 17 18 19 20 21 22 23 24 25 26 27 28 29 30 31 32 33 34 35 36 37 38 39 40 41 42 43 44 45 46 47 48 49 50
121
ASUS43 KMKX 281200
RWRWI

WISCONSIN REGIONAL WEATHER ROUNDUP
NATIONAL WEATHER SERVICE MILWAUKEE/SULLIVAN WI
700 AM CDT TUE MAR 28 2017

NOTE: "FAIR" INDICATES FEW OR NO CLOUDS BELOW 12,000 FEET WITH NO
SIGNIFICANT WEATHER AND/OR OBSTRUCTIONS TO VISIBILITY.

WIZ001-002-006>008-014>016-023>028-281300-
NORTHWEST WISCONSIN

CITY           SKY/WX    TMP DP  RH WIND       PRES   REMARKS
SUPERIOR ARPT  CLEAR     23  23  98 CALM      30.12R
ASHLAND        CLEAR     23  21  92 S3        30.13R
6HR MIN TEMP:  21; 6HR MAX TEMP:  29;

HAYWARD        CLEAR     23  19  85 NE3       30.13R
6HR MIN TEMP:  23; 6HR MAX TEMP:  29;

SIREN          CLEAR     26  25  95 CALM      30.11S
CUMBERLAND     CLEAR     28  27  93 CALM      30.10R
RICE LAKE      CLEAR     28  27  98 CALM      30.12R
CHETEK         CLEAR     26  25  99 CALM      30.11R
LADYSMITH      CLEAR     28  27  96 CALM      30.12R
EAU CLAIRE     FOG       28  28 100 CALM      30.10R VSB 1/4
MENOMONIE      FOG       28  28  98 CALM      30.11R VSB 3/4
NEW RICHMOND   CLEAR     29  29 100 CALM      30.11R FOG
OSCEOLA        CLEAR     27  27 100 CALM      30.13S
$$

WIZ003>005-009-010-017-018-281300-
NORTH CENTRAL WISCONSIN

CITY           SKY/WX    TMP DP  RH WIND       PRES   REMARKS
MANITOWISH WTR CLEAR     22  22 100 CALM      30.10R
ARBOR VITAE    CLEAR     25  24  95 CALM      30.08R
WOODRUFF       CLEAR     25  24  95 CALM      30.08R
RHINELANDER    FOG       23  20  88 CALM      30.10R VSB 1/4
6HR MIN TEMP:  21; 6HR MAX TEMP:  28;

EAGLE RIVER    CLEAR     23  23 100 CALM      30.09R
LAND O LAKES   CLEAR     22  21  96 CALM      30.10S
PHILLIPS       CLEAR     21  20  98 N3        30.10R
TOMAHAWK       CLEAR     20  19  95 CALM      30.11R
MEDFORD        CLEAR     26  25  97 NE5       30.08S WCI  20
MERRILL        CLEAR     23  23  99 CALM      30.10S
$$

WIZ029-030-035-036-043>047-281300-
CENTRAL WISCONSIN

CITY           SKY/WX    TMP DP  RH WIND       PRES   REMARKS
WAUSAU         PTCLDY    28  27  96 NW3       30.10R
6HR MIN TEMP:  27; 6HR MAX TEMP:  31;

MOSINEE        MOCLDY    34  34 100 CALM      30.11R
MARSHFIELD     PTCLDY    28  24  85 CALM      30.09R FOG
6HR MIN TEMP:  28; 6HR MAX TEMP:  37;

STEVENS POINT  CLOUDY    37  35  95 CALM      30.11R
WAUPACA        MOCLDY    39  36  89 CALM      30.10R
WAUTOMA        CLOUDY    40  37  89 CALM      30.12R
6HR MIN TEMP:  40; 6HR MAX TEMP:  42;

WISC RAPIDS    CLOUDY    38  38 100 CALM      30.12R
6HR MIN TEMP:  38; 6HR MAX TEMP:  41;

CAMP DOUGLAS   CLOUDY    39  37  93 CALM      30.09R
$$

WIZ011>013-019>022-031-037>040-048>050-281300-
NORTHEAST WISCONSIN

CITY           SKY/WX    TMP DP  RH WIND       PRES   REMARKS
ANTIGO         CLEAR     28  28 100 CALM      30.09R
SHAWANO        CLOUDY    31  30  96 CALM      30.11R FOG
OCONTO         CLEAR     26  26  98 CALM      30.10R
STURGEON BAY   FOG       31  30  96 N6        30.08R VSB<1/4 WCI  25
6HR MIN TEMP:  30; 6HR MAX TEMP:  36;

GREEN BAY      CLOUDY    33  33 100 N6        30.11R WCI  28
6HR MIN TEMP:  31; 6HR MAX TEMP:  39;

MANITOWOC      NOT AVBL
APPLETON       PTCLDY    34  34 100 N7        30.08R WCI  28
CLINTONVILLE   FOG       30  30 100 CALM      30.10R VSB 1/2
OSHKOSH        CLEAR     35  33  92 CALM      30.09R
6HR MIN TEMP:  34; 6HR MAX TEMP:  40;

$$

WIZ032>034-041-042-053>061-281300-
SOUTHWEST WISCONSIN

CITY           SKY/WX    TMP DP  RH WIND       PRES   REMARKS
LA CROSSE      CLEAR     32  32 100 N3        30.10S FOG
6HR MIN TEMP:  31; 6HR MAX TEMP:  41;

SPARTA         CLOUDY    37  36  99 CALM      30.11R
VIROQUA        CLOUDY    40  40  97 CALM      30.08R
BOSCOBEL       CLOUDY    45  41  86 NE3       30.10R
6HR MIN TEMP:  45; 6HR MAX TEMP:  46;

PRAIRIE DU CHI CLOUDY    44  41  91 CALM      30.08R
PLATTEVILLE    CLOUDY    44  44 100 NE5       30.07R
$$

WIZ056-057-062-063-064-067-068-281300-
SOUTH CENTRAL WISCONSIN

CITY           SKY/WX    TMP DP  RH WIND       PRES   REMARKS
REEDSBURG      CLOUDY    40  40 100 NE3       30.09R
BARABOO/DELLS  CLOUDY    39  38  97 NE3       30.09R
LONE ROCK      CLOUDY    43  40  89 NE3       30.09R
MINERAL POINT  CLOUDY    43  43 100 NE7       30.07R FOG
MADISON        CLOUDY    40  38  93 NE9       30.09R WCI  34
6HR MIN TEMP:  40; 6HR MAX TEMP:  43;

MIDDLETON      CLOUDY    42  41  96 NE6       30.08S
WATERTOWN      MOCLDY    38  38 100 CALM      30.08R
MONROE         CLOUDY    41  39  93 NE9       30.06R FOG
JANESVILLE     CLOUDY    43  41  93 NE8       30.08R
$$

WIZ051-052-058>065-066-070>072-281300-
SOUTHEAST WISCONSIN

CITY           SKY/WX    TMP DP  RH WIND       PRES   REMARKS
MILWAUKEE      CLOUDY    41  36  82 N8        30.08R
6HR MIN TEMP:  39; 6HR MAX TEMP:  41;

WAUKESHA       CLOUDY    37  36  93 N6        30.09R WCI  33
MILWAUKEE/TIMM CLOUDY    37  34  87 N7        30.08R WCI  32
RACINE         CLOUDY    39  35  86 N9        30.10R WCI  33
6HR MIN TEMP:  38; 6HR MAX TEMP:  39;

KENOSHA        CLOUDY    39  36  89 N9        30.08R WCI  33
6HR MIN TEMP:  39; 6HR MAX TEMP:  39;

FOND DU LAC    CLEAR     35  33  92 N3        30.09R FOG
6HR MIN TEMP:  34; 6HR MAX TEMP:  40;

SHEBOYGAN      MOCLDY    38  34  85 N6        30.08R WCI  33
6HR MIN TEMP:  37; 6HR MAX TEMP:  40;

WEST BEND      CLOUDY    37  37 100 N3        30.07S
JUNEAU         PTCLDY    37  36  96 CALM      30.09R FOG
$$

LSZ147-162-281300-
LAKE SUPERIOR

STATION/POSITION TIME  TEMP    WIND        PRES    WAVE
                       AIR SEA DIR/SP/G            HT/PER
                 (UTC) (F)     (DEG/KT/KT) (MB)    (FT/S)
DEVILS ISLAND    1100   33     230/  9/  9 1020.7R
PORT WING        1130   27     140/  2/  4 1020.0S
SAXON HARBOR     1130   27     190/  4/  6 1020.0R
$$

LMZ867-665-643>646-281300-
LAKE MICHIGAN

STATION/POSITION TIME  TEMP    WIND        PRES    WAVE
                       AIR SEA DIR/SP/G            HT/PER
                 (UTC) (F)     (DEG/KT/KT) (MB)    (FT/S)
CHAMBERS ISLAND  1140   32     330/  5/  6 1019.3R
NORTHPORT PIER   1140   31      70/  3/  7 1019.6R
SISTER BAY       1006   31        CALM       N/A
KEWAUNEE LAKESHO 1130   35     350/  6/ 10 1018.3R
SHEBOYGAN LAKESH 1100   40     340/ 11/ 13 1018.3R
PORT WASHINGTON  1140   41      10/  2/  5 1019.6R
MILWAUKEE LAKESH 1130   40     350/  7/ 10   N/A
KENOSHA   LAKESH 1100   39      10/ 13/ 18 1017.9
$$

TC  - TEMPERATURE IN CELSIUS
VSB - VISIBILITY IN STATUTE MILES
WCI - WIND CHILL INDEX
HX  - HEAT INDEX





USA.gov is the U.S. government's official web portal to all federal, state and local government web resources and services.